星链-4218 (STARLINK-4218 )

导读

STARLINK-4218是美国SpaceX公司星链(Starlink)卫星互联网星座中的一颗卫星,于2022年7月7日发射。星链项目旨在为全球偏远地区提供低延迟高速宽带互联网服务,计划总计部署超4万颗低轨卫星。 作为星链星座的组成部分,STARLINK-4218运行在近地轨道,参与构建覆盖全球的卫星互联网络,目前该项目已在全球60多个国家和地区正式提供服务。

基本信息
目录编号:
53025
目录名称:
STARLINK-4218
国际标识:
2022-076AR
轨道中心:
EARTH
卫星名称:
星链-4218
卫星全名:
星链-4218 (STARLINK-4218 )
卫星状态:
在轨 (已飞行1520 天)
发射日期:
2022-07-07 UTC
国别 :
美国 (US)
星等 :
--
轨道信息
数据来源 国际轨道数据 AOE轨道数据
星历时间 2026-09-04T02:50:37+0800
11小时前
查看轨道信息
2026-08-31T15:00:00+0800
3天前
查看轨道信息
半长轴 6843.364km 6843.403km
偏心率 0.0001119 0.0001248
轨道倾角 53.163° 53.162°
近地点辐角 79.417° 74.349°
升交点赤经 359.945° 16.257°
平近点角 280.696° 68.195°
近地点 464.461km 464.411km
远地点 465.993km 466.121km
周期 93.900分钟 93.900分钟
每日圈数 15.335515 15.335382
详细信息
固有亮度:
5
最大亮度:
2.5
卫星平台:
Starlink v1.5
覆盖范围:
全球
运营商:
太空探索技术公司
运营商所在国:
美国
制造商(研发单位):
太空探索技术公司
制造商所在国:
美国
使用方式:
暂无
卫星简介
星链(Starlink)计划是由太空探索技术公司(SpaceX)提出的一个巨型低轨卫星互联网星座项目,计划在2019年至2024年间在太空搭建由约1.2万颗卫星组成的“星链”网络,其中1584颗将部署在地球上空550千米处的近地轨道,并从2020年开始工作。该卫星仍在工作。
2D轨道图
3D轨道图
轨道高度分析图
轨道倾角分析图
轨道综合分析图
查看轨道综合分析图
交会数据列表
事件ID 空间交会对象 最接近时刻(TCA) 交会距离 交会风险概率(CRP) 交会风险指数(CRI) 操作
CDM_260905-102405-302506-538421
2026-09-05T
10:24:00+0000
1.552 km
极远距离
5.565934E-6 低风险 0.5
CDM_260905-080405-302506-972121
2026-09-05T
08:04:33+0000
1.985 km
极远距离
2.204887E-6 低风险 0.42
CDM_260905-085005-302506-538421
2026-09-05T
08:50:05+0000
2.481 km
极远距离
1.664173E-6 低风险 0.39
CDM_260903-230905-302506-816321
2026-09-03T
23:09:52+0000
2.384 km
极远距离
1.634929E-6 低风险 0.39
CDM_260904-222205-302506-803121
2026-09-04T
22:22:45+0000
2.646 km
极远距离
1.578453E-6 低风险 0.39
CDM_260903-193805-302505-898122
2026-09-03T
19:38:47+0000
2.610 km
极远距离
1.45622E-6 低风险 0.38
CDM_260904-033205-302506-015421
2026-09-04T
03:32:54+0000
2.606 km
极远距离
1.431932E-6 低风险 0.38
CDM_260905-021205-302505-894121
2026-09-05T
02:12:07+0000
2.656 km
极远距离
1.402704E-6 低风险 0.38
CDM_260904-210105-302506-860721
2026-09-04T
21:01:11+0000
2.596 km
极远距离
1.402112E-6 低风险 0.38
CDM_260903-122305-302506-622821
2026-09-03T
12:23:42+0000
2.560 km
极远距离
1.380179E-6 低风险 0.38